Time+06,TemperatureF,Dew PointF,Humidity,Sea Level PressureIn,VisibilityMPH,Wind Direction,Wind SpeedMPH,Gust SpeedMPH,PrecipitationIn,Events,Conditions,WindDirDegrees,DateUTC
12:00 AM,54,51,86,29.95,6,Calm,Calm,,,,Mostly Cloudy,,2013-09-10 18:00:00
12:00 AM,51.8,48.2,88,29.95,6.2,NNW,4.5,-,N/A,,Mostly Cloudy,340,2013-09-10 18:00:00
12:30 AM,51.8,50.0,94,29.95,6.2,Calm,Calm,-,N/A,,Mostly Cloudy,0,2013-09-10 18:30:00
1:00 AM,51.8,50.0,94,29.95,6.2,North,4.5,-,N/A,,Mostly Cloudy,360,2013-09-10 19:00:00
1:30 AM,51.8,50.0,94,29.95,6.2,North,4.5,-,N/A,,Mostly Cloudy,10,2013-09-10 19:30:00
2:00 AM,51.8,50.0,94,29.95,6.2,NNW,4.5,-,N/A,,Mostly Cloudy,340,2013-09-10 20:00:00
2:30 AM,51.8,51.8,100,29.95,6.2,North,4.5,-,N/A,,Mostly Cloudy,350,2013-09-10 20:30:00
3:00 AM,54,50,83,29.94,6,ENE,2.2,,,,Mostly Cloudy,70,2013-09-10 21:00:00
3:00 AM,51.8,50.0,94,29.95,6.2,North,4.5,-,N/A,,Mostly Cloudy,350,2013-09-10 21:00:00
3:30 AM,51.8,50.0,94,29.95,-9999.0,North,4.5,-,N/A,,Clear,10,2013-09-10 21:30:00
4:00 AM,51.8,51.8,100,29.95,-9999.0,NW,4.5,-,N/A,,Clear,310,2013-09-10 22:00:00
4:30 AM,51.8,50.0,94,29.95,-9999.0,North,2.2,-,N/A,,Clear,360,2013-09-10 22:30:00
5:00 AM,51.8,50.0,94,29.95,4.3,West,2.2,-,N/A,,Mostly Cloudy,280,2013-09-10 23:00:00
5:30 AM,50.0,48.2,94,29.95,4.3,NNW,4.5,-,N/A,,Mostly Cloudy,330,2013-09-10 23:30:00
6:00 AM,53,49,81,29.96,6,ENE,2.2,,,,Partly Cloudy,70,2013-09-11 00:00:00
6:00 AM,48.2,46.4,93,29.95,4.3,NW,4.5,-,N/A,,Mostly Cloudy,320,2013-09-11 00:00:00
6:30 AM,50.0,50.0,100,29.95,4.3,NNE,4.5,-,N/A,,Mostly Cloudy,20,2013-09-11 00:30:00
7:00 AM,50.0,50.0,100,29.95,-9999.0,NE,2.2,-,N/A,,Clear,40,2013-09-11 01:00:00
7:30 AM,51.8,50.0,94,29.95,-9999.0,NE,4.5,-,N/A,,Clear,50,2013-09-11 01:30:00
8:00 AM,50.0,48.2,94,29.95,-9999.0,Calm,Calm,-,N/A,,Clear,0,2013-09-11 02:00:00
8:30 AM,51.8,50.0,94,29.95,-9999.0,ENE,4.5,-,N/A,,Clear,70,2013-09-11 02:30:00
9:00 AM,53.6,51.8,94,29.95,-9999.0,ENE,4.5,-,N/A,,Clear,60,2013-09-11 03:00:00
9:30 AM,53.6,50.0,88,29.98,-9999.0,NE,4.5,-,N/A,,Clear,50,2013-09-11 03:30:00
10:00 AM,53.6,50.0,88,29.98,-9999.0,ENE,2.2,-,N/A,,Clear,70,2013-09-11 04:00:00
10:30 AM,57.2,51.8,82,29.98,-9999.0,North,2.2,-,N/A,,Clear,10,2013-09-11 04:30:00
11:00 AM,57.2,50.0,77,29.98,-9999.0,East,4.5,-,N/A,,Clear,80,2013-09-11 05:00:00
11:30 AM,59.0,48.2,67,29.98,-9999.0,East,4.5,-,N/A,,Clear,100,2013-09-11 05:30:00
12:00 PM,60,46,50,29.99,31,East,2.2,,,,Mostly Cloudy,90,2013-09-11 06:00:00
12:00 PM,60.8,44.6,55,29.98,-9999.0,ENE,8.9,-,N/A,,Clear,60,2013-09-11 06:00:00
12:30 PM,60.8,46.4,59,29.98,-9999.0,ENE,8.9,-,N/A,,Clear,70,2013-09-11 06:30:00
1:00 PM,62.6,46.4,55,29.98,-9999.0,East,6.7,-,N/A,,Clear,90,2013-09-11 07:00:00
1:30 PM,60.8,44.6,55,29.98,6.2,ENE,4.5,-,N/A,,Mostly Cloudy,70,2013-09-11 07:30:00
2:00 PM,62.6,42.8,48,29.98,6.2,NE,6.7,-,N/A,,Mostly Cloudy,50,2013-09-11 08:00:00
2:30 PM,62.6,44.6,52,29.98,-9999.0,NE,4.5,-,N/A,,Clear,40,2013-09-11 08:30:00
3:00 PM,61,43,40,29.99,31,East,2.2,,,,Mostly Cloudy,80,2013-09-11 09:00:00
3:00 PM,64.4,44.6,49,29.98,-9999.0,SW,2.2,-,N/A,,Clear,220,2013-09-11 09:00:00
3:30 PM,62.6,44.6,52,29.98,-9999.0,North,6.7,-,N/A,,Clear,360,2013-09-11 09:30:00
4:00 PM,62.6,44.6,52,29.98,-9999.0,North,6.7,-,N/A,,Clear,350,2013-09-11 10:00:00
4:30 PM,64.4,46.4,52,29.98,-9999.0,NW,6.7,-,N/A,,Clear,320,2013-09-11 10:30:00
5:00 PM,62.6,44.6,52,29.98,6.2,NNW,6.7,-,N/A,,Mostly Cloudy,340,2013-09-11 11:00:00
5:30 PM,62.6,46.4,55,29.98,6.2,North,6.7,-,N/A,,Mostly Cloudy,10,2013-09-11 11:30:00
6:00 PM,62,45,43,29.98,12,NNW,2.2,,,,Mostly Cloudy,340,2013-09-11 12:00:00
6:00 PM,60.8,48.2,63,29.98,-9999.0,NW,2.2,-,N/A,,Clear,320,2013-09-11 12:00:00
6:30 PM,60.8,46.4,59,29.98,6.2,Calm,Calm,-,N/A,,Mostly Cloudy,0,2013-09-11 12:30:00
7:00 PM,59.0,48.2,67,29.98,-9999.0,North,4.5,-,N/A,,Clear,10,2013-09-11 13:00:00
7:30 PM,60.8,48.2,63,30.01,-9999.0,NE,6.7,-,N/A,,Clear,40,2013-09-11 13:30:00
8:00 PM,59.0,48.2,67,30.01,-9999.0,NNE,4.5,-,N/A,,Clear,30,2013-09-11 14:00:00
8:30 PM,57.2,46.4,67,30.01,-9999.0,ENE,2.2,-,N/A,,Clear,70,2013-09-11 14:30:00
9:00 PM,57,46,56,30.02,6,Calm,Calm,,,,,,2013-09-11 15:00:00
9:00 PM,51.8,46.4,82,30.01,-9999.0,NE,2.2,-,N/A,,Clear,40,2013-09-11 15:00:00
9:30 PM,48.2,44.6,87,30.04,-9999.0,NE,2.2,-,N/A,,Clear,40,2013-09-11 15:30:00
10:00 PM,46.4,42.8,87,30.04,-9999.0,ENE,2.2,-,N/A,,Clear,70,2013-09-11 16:00:00
10:30 PM,48.2,46.4,93,30.04,-9999.0,Calm,Calm,-,N/A,,Clear,0,2013-09-11 16:30:00
11:00 PM,46.4,44.6,93,30.04,3.7,Calm,Calm,-,N/A,,Scattered Clouds,0,2013-09-11 17:00:00
11:30 PM,44.6,42.8,93,30.04,3.7,Calm,Calm,-,N/A,Fog,Shallow Fog,0,2013-09-11 17:30:00